Regional Weather Roundup
Issued by NWS

Home | Current Version | Previous Version | Text Only | Print | Product List | Glossary Off
Versions: 1 2 3 4 5 6 7 8 9 10 11 12 13 14 15 16 17 18 19 20 21 22 23 24 25 26 27 28 29 30 31 32 33 34 35 36 37 38 39 40 41 42 43 44 45 46 47 48 49 50

000
ASUS43 KDMX 241307
RWRIA

WEATHER ROUNDUP FOR IOWA
NATIONAL WEATHER SERVICE DES MOINES IA
800 AM CDT THU JUL 24 2014

NOTE: "FAIR" INDICATES FEW OR NO CLOUDS BELOW 12,000 FEET WITH NO
SIGNIFICANT WEATHER AND/OR OBSTRUCTIONS TO VISIBILITY.

* - THESE STATIONS ARE NOT NWS STATIONS...THUS NOT UNDER NWS
QUALITY CONTROL.  THEY ALSO DO NOT REPORT WEATHER SUCH
AS PRECIPITATION OR FOG.

IAZ001>003-012>014-020>022-031>034-043>046-241400-
   NORTHWEST IOWA

CITY           SKY/WX    TMP DP  RH WIND       PRES   REMARKS
CARROLL *      SUNNY     63  59  88 CALM      30.15R
CHEROKEE *     MOSUNNY   64  63  94 CALM      30.14S
DENISON *      MOSUNNY   68  61  77 S3        30.13S
LE MARS *      SUNNY     66  61  82 S5        30.13S
ORANGE CITY *  SUNNY     66  61  82 SE3       30.14R
SHELDON *      SUNNY     63  59  88 SE3       30.13R
SIOUX CITY     PTSUNNY   66  62  87 SE6       30.12R
SPENCER        MOSUNNY   66  60  81 SE6       30.14S
STORM LAKE *   SUNNY     66  63  88 S6        30.15S
$$

IAZ055>058-069>071-079>083-090>094-241400-
   SOUTHWEST IOWA

CITY           SKY/WX    TMP DP  RH WIND       PRES   REMARKS
ATLANTIC *     MOSUNNY   64  61  88 CALM      30.15R
AUDUBON *      SUNNY     66  63  88 CALM      30.16R
CLARINDA *     SUNNY     66  61  82 CALM      30.17R
COUNCIL BLFS * SUNNY     66  63  88 S8        30.13S
CRESTON *      SUNNY     66  61  82 CALM      30.16S
HARLAN  *      MOSUNNY   64  61  88 CALM      30.18S
LAMONI         SUNNY     66  60  81 E3        30.16S
RED OAK *      MOSUNNY   66  61  82 CALM      30.16R
SHENANDOAH *   SUNNY     66  63  88 CALM      30.16R
$$

IAZ047>049-059>061-072>074-084-241400-
   CENTRAL IOWA

CITY           SKY/WX    TMP DP  RH WIND       PRES   REMARKS
AMES           SUNNY     64  60  87 CALM      30.16R
ANKENY *       SUNNY     64  61  88 CALM      30.16S
CHARITON *     SUNNY     66  63  88 CALM      30.17R
DES MOINES     MOSUNNY   67  61  81 S3        30.15S
GRINNELL*      SUNNY     64  59  82 E6        30.17S
KNOXVILLE *    SUNNY     64  61  88 CALM      30.15S
MARSHALLTOWN   SUNNY     67  61  81 CALM      30.15F
PELLA *        SUNNY     68  61  77 CALM      30.18R
PERRY *          N/A     64  63  94 CALM      30.16R
$$

IAZ004>006-015-016-023>025-035-036-241400-
   NORTH CENTRAL IOWA

CITY           SKY/WX    TMP DP  RH WIND       PRES   REMARKS
ALGONA *       SUNNY     66  63  88 S5        30.16R
CLARION *      SUNNY     68  63  83 CALM      30.17R
ESTHERVILLE    SUNNY     63  58  83 SE5       30.15R
FORT DODGE *   SUNNY     63  61  94 E3        30.17R
MASON CITY     SUNNY     63  60  90 CALM      30.18R
FOREST CITY *  SUNNY     63  61  94 SE3       30.16R
IOWA FALLS *     N/A     66  61  82 CALM      30.17S
$$

IAZ007>011-017>019-026>030-037>042-050>054-066-241400-
   NORTHEAST IOWA

CITY           SKY/WX    TMP DP  RH WIND       PRES   REMARKS
CEDAR RAPIDS   SUNNY     63  58  83 SE5       30.16F
CHARLES CITY * SUNNY     64  57  77 E3        30.17S
CLINTON *      SUNNY     63  54  72 E6        30.21S
DECORAH *      MOSUNNY   63  59  88 S5        30.16F
DUBUQUE        SUNNY     62  52  69 SE7       30.19F
MONTICELLO *   SUNNY     63  57  82 E3        30.18S
OELWEIN *      SUNNY     63  59  88 SE8       30.17F
WATERLOO       SUNNY     65  60  84 E3        30.15F
$$

IAZ064-065-067-068-078-241400-
   EAST CENTRAL IOWA

CITY           SKY/WX    TMP DP  RH WIND       PRES   REMARKS
DAVENPORT      SUNNY     63  55  75 E8        30.19S
IOWA CITY      SUNNY     63  56  78 SE6       30.19S
MT. PLEASANT * SUNNY     64  57  77 E3        30.18S
MUSCATINE *    SUNNY     64  57  77 CALM      30.18S
QUAD CITIES    SUNNY     63  55  75 E7        30.18S
$$

IAZ062-063-075>077-085>089-095>099-241400-
   SOUTHEAST IOWA

CITY           SKY/WX    TMP DP  RH WIND       PRES   REMARKS
BURLINGTON     SUNNY     65  52  62 E7        30.18R
FAIRFIELD *    SUNNY     63  59  88 SE8       30.18R
FORT MADISON * SUNNY     66  59  77 E3        30.19R
KEOKUK *       SUNNY     66  55  68 E6        30.17S
OSKALOOSA *      N/A     64  61  88 SE3       30.17S
CENTERVILLE *  SUNNY     64  64 100 CALM      30.19R
OTTUMWA        SUNNY     64  59  83 SE5       30.16S
WASHINGTON *   SUNNY     64  59  82 SE6       30.18S
$$

ABBREVIATIONS USED IN REMARKS
   TC - TEMPERATURES IN CELSIUS
  WCI - WIND CHILL INDEX
   HX - HEAT INDEX
  VSB - VISIBILITY
$$




USA.gov is the U.S. government's official web portal to all federal, state and local government web resources and services.